Weather History for Flora, IL

Change the Weather History Date:

Tuesday, January 22, 2013

  Actual Average (KEVV) Record (KEVV)
Temperature  
Mean Temperature 14 °F 32 °F  
Max Temperature 19 °F 41 °F 70 °F (1964)
Min Temperature 10 °F 24 °F -6 °F (1977)
Degree Days  
Heating Degree Days 50 33  
Month to date heating degree days 721  
Since 1 July heating degree days 2493  
Cooling Degree Days 0 0  
Month to date cooling degree days 0  
Year to date cooling degree days 0  
Moisture  
Dew Point 2 °F    
Average Humidity 55    
Maximum Humidity 68    
Minimum Humidity 45    
Precipitation  
Precipitation 0.00 in 0.10 in 3.72 in (1982)
Month to date precipitation 2.16  
Year to date precipitation 2.16  
Snow  
Snow 0.00 in 0.10 in 2.30 in (1966)
Month to date snowfall 2.3  
Since 1 July snowfall 5.8  
Snow Depth -    
Sea Level Pressure  
Sea Level Pressure 30.41 in    
Wind  
Wind Speed 8 mph (WNW)    
Max Wind Speed 14 mph    
Max Gust Speed 18 mph    
Visibility 10 miles    
Events      
T = Trace of Precipitation, MM = Missing Value Source: NWS Daily Summary

Daily Weather History Graph

Daily Weather History Graph

Search for Another Location

Airport:

Trip Planner

Search our weather history database for the weather conditions in past years. The results will help you decide how hot, cold, wet, or windy it might be!

Date:

Astronomy

Jan. 22, 2013 Rise Set
Actual Time 7:06 AM CST 5:04 PM CST
Civil Twilight 6:38 AM CST 5:33 PM CST
Nautical Twilight 6:05 AM CST 6:05 PM CST
Astronomical Twilight 5:34 AM CST 6:37 PM CST
Moon 1:27 PM CST (1/22) 3:27 AM CST (1/22)
Length of Visible Light 10h 55m
Length of Day
9h 57m
Waxing Gibbous, 83% of the Moon is Illuminated
Jan 22
Waxing Gibbous
Jan 26
Full
Feb 3
Last Quarter
Feb 10
New
Feb 17
First Quarter

Hourly Weather History & Observations

Time (CST) Temp. Windchill Dew Point Humidity Pressure Visibility Wind Dir Wind Speed Gust Speed Precip Events Conditions
12:15 AM 14.0 °F 2.0 °F -0.8 °F 52% 30.37 in 10.0 mi NW 9.2 mph 16.1 mph N/A   Clear
12:35 AM 13.8 °F 0.2 °F -0.2 °F 54% 30.37 in 10.0 mi WNW 11.5 mph - N/A   Clear
12:55 AM 13.6 °F 2.5 °F -1.1 °F 52% 30.37 in 10.0 mi NW 8.1 mph 17.3 mph N/A   Clear
1:15 AM 13.5 °F -0.2 °F -0.8 °F 53% 30.38 in 10.0 mi NW 11.5 mph - N/A   Clear
1:35 AM 13.3 °F 3.0 °F -0.6 °F 54% 30.38 in 10.0 mi NW 6.9 mph - N/A   Clear
1:55 AM 13.1 °F 0.9 °F -0.4 °F 55% 30.38 in 10.0 mi NNW 9.2 mph - N/A   Clear
2:15 AM 13.1 °F 0.1 °F -0.0 °F 56% 30.38 in 10.0 mi NNW 10.4 mph - N/A   Clear
2:35 AM 12.9 °F -0.2 °F -0.8 °F 54% 30.39 in 10.0 mi NNW 10.4 mph - N/A   Clear
2:55 AM 12.6 °F -2.0 °F -1.5 °F 54% 30.39 in 10.0 mi NW 12.7 mph - N/A   Clear
3:15 AM 12.2 °F -1.0 °F -1.8 °F 53% 30.38 in 10.0 mi NNW 10.4 mph - N/A   Clear
3:35 AM 12.2 °F -1.0 °F -2.2 °F 53% 30.38 in 10.0 mi NW 10.4 mph - N/A   Clear
3:55 AM 12.2 °F 0.7 °F -1.3 °F 55% 30.39 in 10.0 mi NW 8.1 mph - N/A   Clear
4:15 AM 12.2 °F -3.1 °F -1.7 °F 54% 30.40 in 10.0 mi NW 13.8 mph 18.4 mph N/A   Clear
4:35 AM 12.0 °F 0.5 °F -1.1 °F 56% 30.40 in 10.0 mi NW 8.1 mph - N/A   Clear
4:55 AM 12.0 °F -2.0 °F -0.6 °F 57% 30.40 in 10.0 mi NNW 11.5 mph - N/A   Clear
5:15 AM 11.3 °F -0.4 °F -0.9 °F 58% 30.41 in 10.0 mi NW 8.1 mph - N/A   Clear
5:35 AM 11.1 °F 3.1 °F 0.5 °F 62% 30.41 in 10.0 mi NW 4.6 mph - N/A   Clear
5:55 AM 11.1 °F 0.4 °F -0.0 °F 61% 30.42 in 10.0 mi NW 6.9 mph - N/A   Clear
6:15 AM 10.9 °F -0.8 °F -0.6 °F 60% 30.42 in 10.0 mi NW 8.1 mph - N/A   Clear
6:35 AM 10.9 °F -0.8 °F -0.4 °F 60% 30.43 in 10.0 mi WNW 8.1 mph - N/A   Clear
6:55 AM 10.6 °F -1.3 °F -0.6 °F 61% 30.43 in 10.0 mi NNW 8.1 mph - N/A   Clear
7:15 AM 10.4 °F 2.2 °F 0.7 °F 65% 30.43 in 10.0 mi NNW 4.6 mph - N/A   Clear
7:35 AM 10.4 °F -1.5 °F 1.4 °F 67% 30.44 in 10.0 mi NW 8.1 mph - N/A   Clear
7:55 AM 11.7 °F 0.0 °F 0.5 °F 61% 30.44 in 10.0 mi NW 8.1 mph - N/A   Scattered Clouds
8:15 AM 12.0 °F 2.7 °F 1.2 °F 62% 30.44 in 10.0 mi WNW 5.8 mph - N/A   Overcast
8:35 AM 12.4 °F 3.1 °F 1.6 °F 62% 30.45 in 10.0 mi NW 5.8 mph - N/A   Mostly Cloudy
8:55 AM 12.9 °F 2.6 °F 1.6 °F 61% 30.46 in 10.0 mi WNW 6.9 mph - N/A   Scattered Clouds
9:15 AM 13.3 °F 2.0 °F 1.6 °F 60% 30.46 in 10.0 mi NW 8.1 mph - N/A   Scattered Clouds
9:35 AM 14.0 °F 5.1 °F 1.4 °F 57% 30.47 in 10.0 mi West 5.8 mph - N/A   Clear
9:55 AM 13.8 °F 2.7 °F 0.3 °F 55% 30.46 in 10.0 mi WNW 8.1 mph - N/A   Clear
10:15 AM 14.7 °F 2.9 °F -0.0 °F 52% 30.48 in 10.0 mi WNW 9.2 mph - N/A   Clear
10:35 AM 14.9 °F 3.1 °F 0.1 °F 52% 30.48 in 10.0 mi West 9.2 mph - N/A   Clear
10:55 AM 15.3 °F - 0.7 °F 53% 30.47 in 10.0 mi Calm Calm - N/A   Clear
11:15 AM 16.3 °F 6.7 °F 1.9 °F 53% 30.47 in 10.0 mi West 6.9 mph - N/A   Clear
11:35 AM 17.1 °F 6.6 °F -0.0 °F 47% 30.46 in 10.0 mi West 8.1 mph - N/A   Clear
11:55 AM 17.1 °F 3.6 °F -0.4 °F 46% 30.45 in 10.0 mi West 12.7 mph - N/A   Clear
12:15 PM 17.8 °F 6.6 °F 0.1 °F 46% 30.44 in 10.0 mi West 9.2 mph - N/A   Clear
12:35 PM 17.6 °F 6.4 °F 1.4 °F 49% 30.42 in 10.0 mi WNW 9.2 mph - N/A   Clear
12:55 PM 18.5 °F 6.8 °F 1.0 °F 47% 30.42 in 10.0 mi WNW 10.4 mph - N/A   Clear
1:15 PM 18.5 °F 6.1 °F 0.3 °F 45% 30.42 in 10.0 mi WNW 11.5 mph - N/A   Clear
1:35 PM 19.4 °F 8.6 °F 1.2 °F 45% 30.40 in 10.0 mi WNW 9.2 mph - N/A   Clear
1:55 PM 19.2 °F 8.4 °F 1.2 °F 46% 30.41 in 10.0 mi WNW 9.2 mph - N/A   Scattered Clouds
2:15 PM 18.9 °F 8.0 °F 1.2 °F 46% 30.40 in 10.0 mi West 9.2 mph - N/A   Scattered Clouds
2:35 PM 19.4 °F 10.4 °F 2.3 °F 48% 30.40 in 10.0 mi NW 6.9 mph - N/A   Scattered Clouds
2:55 PM 19.8 °F 10.8 °F 2.5 °F 47% 30.41 in 10.0 mi NNW 6.9 mph - N/A   Mostly Cloudy
3:15 PM 19.0 °F 9.0 °F 1.4 °F 46% 30.41 in 10.0 mi WNW 8.1 mph - N/A   Overcast
3:35 PM 19.4 °F 9.5 °F 1.9 °F 47% 30.40 in 10.0 mi WNW 8.1 mph - N/A   Overcast
3:55 PM 19.0 °F 11.1 °F 2.1 °F 48% 30.40 in 10.0 mi NW 5.8 mph - N/A   Overcast
4:15 PM 18.9 °F 13.7 °F 2.1 °F 48% 30.39 in 10.0 mi West 3.5 mph - N/A   Overcast
4:35 PM 18.9 °F 12.1 °F 2.8 °F 50% 30.39 in 10.0 mi West 4.6 mph - N/A   Overcast
4:55 PM 18.7 °F 11.9 °F 2.7 °F 50% 30.40 in 10.0 mi WNW 4.6 mph - N/A   Overcast
5:15 PM 18.5 °F 11.7 °F 2.3 °F 49% 30.39 in 10.0 mi WNW 4.6 mph - N/A   Overcast
5:35 PM 18.5 °F - 2.7 °F 50% 30.40 in 10.0 mi Calm Calm - N/A   Overcast
5:55 PM 18.9 °F 12.1 °F 3.0 °F 50% 30.40 in 10.0 mi West 4.6 mph - N/A   Overcast
6:15 PM 18.5 °F 13.3 °F 2.5 °F 50% 30.40 in 10.0 mi West 3.5 mph - N/A   Overcast
6:35 PM 18.5 °F 13.3 °F 3.9 °F 53% 30.40 in 10.0 mi WSW 3.5 mph - N/A   Overcast
6:55 PM 18.0 °F 11.1 °F 4.1 °F 55% 30.39 in 10.0 mi West 4.6 mph - N/A   Overcast
7:15 PM 17.2 °F 11.9 °F 4.3 °F 57% 30.39 in 10.0 mi West 3.5 mph - N/A   Scattered Clouds
7:35 PM 17.6 °F 12.3 °F 4.1 °F 56% 30.38 in 10.0 mi WSW 3.5 mph - N/A   Scattered Clouds
7:55 PM 17.8 °F 12.5 °F 4.3 °F 56% 30.39 in 10.0 mi WSW 3.5 mph - N/A   Mostly Cloudy
8:15 PM 18.3 °F 13.1 °F 5.4 °F 57% 30.39 in 10.0 mi West 3.5 mph - N/A   Overcast
8:35 PM 18.5 °F 13.3 °F 5.4 °F 57% 30.40 in 10.0 mi West 3.5 mph - N/A   Overcast
8:55 PM 18.9 °F 12.1 °F 5.4 °F 56% 30.40 in 10.0 mi West 4.6 mph - N/A   Overcast
9:15 PM 18.9 °F 13.7 °F 5.5 °F 56% 30.40 in 10.0 mi West 3.5 mph - N/A   Overcast
9:35 PM 19.0 °F 13.9 °F 6.1 °F 57% 30.40 in 10.0 mi West 3.5 mph - N/A   Overcast
9:55 PM 19.0 °F 12.3 °F 7.3 °F 60% 30.40 in 10.0 mi WSW 4.6 mph - N/A   Overcast
10:15 PM 19.0 °F 13.9 °F 7.7 °F 61% 30.40 in 10.0 mi WSW 3.5 mph - N/A   Overcast
10:35 PM 19.2 °F 14.1 °F 7.9 °F 61% 30.40 in 10.0 mi WSW 3.5 mph - N/A   Overcast
10:55 PM 19.2 °F 14.1 °F 8.1 °F 62% 30.40 in 10.0 mi West 3.5 mph - N/A   Overcast
11:15 PM 19.4 °F 14.3 °F 8.8 °F 63% 30.39 in 10.0 mi West 3.5 mph - N/A   Overcast
11:35 PM 19.4 °F 14.3 °F 10.4 °F 68% 30.40 in 10.0 mi WNW 3.5 mph - N/A   Overcast
11:55 PM 19.4 °F - 8.8 °F 63% 30.39 in 10.0 mi Calm Calm - N/A   Overcast